Waarnemingen

Advertentie
Mijn weer
Mont-De-Marsan, Frankrijk (7607): temperatuur & dauwpunt: 22.04.2017 02:00:00 - 28.04.2017 02:00:00 (CEST)Mont-De-Marsan, Frankrijk (7607): temperatuur 5cm: 22.04.2017 02:00:00 - 28.04.2017 02:00:00 (CEST)Mont-De-Marsan, Frankrijk (7607): temperatuur -20cm & temperatuur -100cm: 22.04.2017 02:00:00 - 28.04.2017 02:00:00 (CEST)Mont-De-Marsan, Frankrijk (7607): windsnelheid & windstoten: 22.04.2017 02:00:00 - 28.04.2017 02:00:00 (CEST)Mont-De-Marsan, Frankrijk (7607): windrichting: 22.04.2017 02:00:00 - 28.04.2017 02:00:00 (CEST)Mont-De-Marsan, Frankrijk (7607): luchtdruk: 22.04.2017 02:00:00 - 28.04.2017 02:00:00 (CEST)Mont-De-Marsan, Frankrijk (7607): zicht: 22.04.2017 02:00:00 - 28.04.2017 02:00:00 (CEST)Mont-De-Marsan, Frankrijk (7607): Zonneschijnduur: 22.04.2017 02:00:00 - 28.04.2017 02:00:00 (CEST)Mont-De-Marsan, Frankrijk (7607): neerslag: 22.04.2017 02:00:00 - 28.04.2017 02:00:00 (CEST)
Datum & Tijd tt [°C] td [°C] tt 5cm [°C] tt -20cm [°C] tt -100cm [°C] ff [km/u] ff [kn] fx [km/u] fx [kn] dd ppp [hPa] vv [km] sd [min] rr [mm]
28.04.2017 02:00:00 2,8 0,2 -2,3 14,4 14,4 2 1 6 3 WZW 1022,1 60 0 0,0
28.04.2017 01:00:00 3,6 0,3 -0,1 14,5 14,4 5 3 8 5 W 1022,1 60 0 0,0
28.04.2017 00:00:00 4,3 0,1 0,4 14,6 14,5 8 4 13 7 W 1022,1 60 0 0,0
27.04.2017 23:00:00 5,8 -0,1 3,1 14,7 14,5 11 6 16 8 NW 1021,6 60 0 0,0
27.04.2017 22:00:00 8,1 0,3 6,1 14,6 14,4 13 7 19 10 NW 1021,0 60 0 0,0
27.04.2017 21:00:00 8,8 -1,1 7,3 14,6 14,5 10 6 34 18 WNW 1020,0 60 14 0,0
27.04.2017 20:00:00 11,0 -2,4 10,7 14,5 14,5 12 7 26 14 NW 1019,4 60 20 0,0
27.04.2017 19:00:00 13,4 -3,4 14,3 14,4 14,5 17 9 35 19 NNW 1018,6 60 51 0,0
27.04.2017 18:00:00 14,2 -3,2 13,2 14,1 14,5 18 10 34 18 NNW 1018,3 60 34 0,0
27.04.2017 17:00:00 12,3 -2,7 13,5 13,9 14,5 16 9 30 16 N 1018,4 60 17 0,0
27.04.2017 16:00:00 14,5 -0,4 15,0 13,6 14,5 9 5 32 17 NNW 1018,4 60 22 0,0
27.04.2017 15:00:00 12,9 -2,6 14,2 13,4 14,5 16 8 26 14 WNW 1018,5 60 27 0,0
27.04.2017 14:00:00 11,3 -0,8 13,4 13,2 14,5 15 8 32 17 N 1019,0 60 36 0,0
27.04.2017 13:00:00 11,8 0,8 13,7 13,0 14,5 13 7 34 18 N 1019,2 60 33 0,0
27.04.2017 12:00:00 11,3 0,7 15,0 13,0 14,5 11 6 - - NNO 1019,3 60 46 -
27.04.2017 11:00:00 9,4 1,3 16,6 13,1 14,5 9 5 19 11 N 1019,3 60 60 -
27.04.2017 10:00:00 7,2 2,3 9,7 13,2 14,5 10 5 19 10 NO 1019,5 27 55 0,0
27.04.2017 09:00:00 4,6 2,0 0,9 13,4 14,5 2 1 7 4 ONO 1019,1 36 60 0,0
27.04.2017 08:00:00 0,4 -0,6 -5,0 13,6 14,5 2 1 5 3 NO 1018,7 20 32 0,0
27.04.2017 07:00:00 -0,5 -1,5 -5,0 13,8 14,5 0 0 3 2 N 1018,1 38 0 0,0
27.04.2017 06:00:00 -0,4 -1,4 -4,3 14,0 14,5 0 0 6 3 N 1017,8 32 0 0,0
27.04.2017 05:00:00 -0,4 -1,2 -4,3 14,2 14,5 4 2 6 4 N 1018,1 35 0 0,0
27.04.2017 04:00:00 0,9 0,0 -3,9 14,5 14,5 5 3 8 4 N 1017,7 33 0 0,0
27.04.2017 03:00:00 1,3 0,0 -3,3 14,6 14,5 0 0 6 4 N 1018,0 48 0 0,0
27.04.2017 02:00:00 2,2 0,7 -2,9 14,8 14,5 2 1 5 3 Z 1018,1 58 0 0,0
27.04.2017 01:00:00 3,0 0,7 -2,0 15,0 14,5 0 0 9 5 N 1018,0 60 0 0,0
27.04.2017 00:00:00 4,7 0,6 0,0 15,0 14,5 6 3 11 6 N 1017,9 60 0 0,0
26.04.2017 23:00:00 6,3 1,0 4,0 15,1 14,5 9 5 19 10 N 1018,0 60 0 0,0
26.04.2017 22:00:00 8,3 0,5 7,2 15,1 14,5 10 5 20 11 NNW 1017,2 60 0 0,0
26.04.2017 21:00:00 10,3 0,0 9,8 15,1 14,5 13 7 21 12 N 1016,4 60 24 0,0
26.04.2017 20:00:00 12,1 -0,8 11,9 15,0 14,5 8 4 15 8 WNW 1015,6 60 47 0,0
26.04.2017 19:00:00 12,0 -1,2 13,5 14,9 14,5 9 5 19 10 WNW 1015,2 60 9 0,0
26.04.2017 18:00:00 11,7 -0,2 12,9 14,8 14,5 14 8 22 12 NNW 1015,1 60 6 0,0
26.04.2017 17:00:00 11,9 -0,6 13,5 14,7 14,5 8 5 19 10 NNO 1015,2 60 0 0,0
26.04.2017 16:00:00 12,0 0,4 15,6 14,5 14,5 5 3 22 12 N 1015,2 60 2 0,0
26.04.2017 15:00:00 11,5 2,2 13,4 14,4 14,5 9 5 23 13 N 1015,3 60 1 0,0
26.04.2017 14:00:00 10,6 1,9 12,7 14,4 14,5 14 8 22 12 NNW 1015,3 60 6 0,0
26.04.2017 13:00:00 9,9 3,0 10,2 14,4 14,5 10 6 16 9 NNW 1015,3 50 1 0,0
26.04.2017 12:00:00 8,5 3,1 9,7 14,4 14,5 7 4 15 8 NNW 1015,2 51 0 0,0
26.04.2017 11:00:00 7,1 3,7 7,2 14,5 14,5 10 6 17 9 N 1015,0 46 0 0,0
26.04.2017 10:00:00 6,2 4,2 6,1 14,6 14,5 9 5 15 8 NNW 1014,7 19 0 0,0
26.04.2017 09:00:00 5,6 4,1 5,5 14,7 14,5 10 5 17 9 NW 1014,1 19 0 0,2
26.04.2017 08:00:00 5,5 4,5 5,2 14,8 14,5 8 5 16 9 WNW 1013,1 13 0 0,2
26.04.2017 07:00:00 5,7 4,3 5,4 15,0 14,5 12 7 23 12 NNW 1012,3 18 0 0,0
26.04.2017 06:00:00 6,0 4,8 5,8 15,1 14,5 10 6 19 10 NNW 1011,3 12 0 0,2
26.04.2017 05:00:00 6,5 5,0 6,2 15,2 14,5 15 8 22 12 N 1011,2 31 0 0,2
26.04.2017 04:00:00 7,4 5,7 7,2 15,2 14,5 12 7 24 13 NNW 1011,1 30 0 0,0
26.04.2017 03:00:00 8,1 6,7 7,9 15,3 14,5 9 5 27 14 N 1010,5 19 0 0,0
26.04.2017 02:00:00 8,8 7,6 8,6 15,4 14,5 16 8 23 12 N 1010,7 12 0 0,0
26.04.2017 01:00:00 9,5 8,4 9,4 15,5 14,5 14 8 21 11 N 1010,5 6 0 0,0
26.04.2017 00:00:00 10,6 10,0 10,5 15,5 14,5 8 4 14 7 WNW 1010,3 4,2 0 0,0
25.04.2017 23:00:00 10,9 10,1 10,6 15,6 14,5 6 4 13 7 NW 1010,1 4,6 0 0,0
25.04.2017 22:00:00 10,8 9,9 10,3 15,7 14,5 4 2 13 7 ZW 1009,7 11 0 0,2
25.04.2017 21:00:00 10,8 9,6 10,3 15,7 14,5 6 3 15 8 ZZW 1009,0 31 0 0,2
25.04.2017 20:00:00 11,2 9,3 10,7 15,8 14,5 8 5 15 8 ZW 1009,0 48 0 0,0
25.04.2017 19:00:00 11,1 9,7 10,9 15,9 14,5 10 5 14 8 WZW 1008,8 11 0 0,2
25.04.2017 18:00:00 10,7 9,6 10,0 15,9 14,5 9 5 20 11 W 1008,9 14 0 0,0
25.04.2017 17:00:00 9,9 8,7 9,0 15,9 14,5 8 4 28 15 WZW 1009,0 10 0 3,0
25.04.2017 16:00:00 12,7 10,6 12,3 16,0 14,5 16 9 22 12 NW 1008,7 19 0 0,0
25.04.2017 15:00:00 13,3 11,4 13,3 15,9 14,4 9 5 15 8 NW 1008,4 18 0 0,2
25.04.2017 14:00:00 13,4 10,7 14,2 16,0 14,4 5 3 10 6 NNO 1008,5 19 0 0,0
25.04.2017 13:00:00 12,8 11,2 13,0 16,0 14,4 5 3 13 7 N 1008,9 16 0 0,2
25.04.2017 12:00:00 12,2 11,1 11,8 16,1 14,4 4 2 6 3 NO 1009,3 8 0 0,2
25.04.2017 11:00:00 11,5 10,6 11,7 16,2 14,4 2 1 9 5 OZO 1009,7 8 0 0,2
25.04.2017 10:00:00 11,4 10,1 10,9 16,3 14,4 0 0 14 8 N 1010,3 8 0 1,2
25.04.2017 09:00:00 11,1 9,8 10,7 16,4 14,4 10 5 15 8 W 1010,7 13 0 0,0
25.04.2017 08:00:00 12,1 9,1 10,3 16,5 14,4 2 1 14 8 OZO 1009,7 15 0 0,2
25.04.2017 07:00:00 11,4 8,1 10,0 16,7 14,4 3 1 14 7 O 1010,0 36 0 0,0
25.04.2017 06:00:00 11,5 8,5 10,3 16,9 14,4 7 4 20 11 OZO 1010,0 34 0 0,0
25.04.2017 05:00:00 11,4 7,3 10,6 17,0 14,4 13 7 19 11 W 1010,8 36 0 0,0
25.04.2017 04:00:00 11,9 4,6 9,9 17,2 14,4 8 5 13 7 ZW 1010,7 59 0 0,0
25.04.2017 03:00:00 12,1 3,1 8,2 17,3 14,3 8 4 16 9 WZW 1011,0 60 0 0,0
25.04.2017 02:00:00 12,5 2,1 11,1 17,4 14,4 13 7 19 10 W 1011,9 60 0 0,0
25.04.2017 01:00:00 12,9 1,5 10,5 17,5 14,4 10 6 14 8 WNW 1011,8 60 0 0,0
25.04.2017 00:00:00 14,2 0,4 9,8 17,6 14,4 7 4 11 6 WNW 1011,7 60 0 0,0
24.04.2017 23:00:00 15,2 0,2 9,8 17,6 14,3 5 3 12 7 W 1011,8 60 0 0,0
24.04.2017 22:00:00 17,0 -0,7 11,3 17,6 14,4 9 5 14 8 WNW 1011,7 19 0 0,0
24.04.2017 21:00:00 20,0 -0,6 16,8 17,4 14,3 9 5 21 11 NW 1011,2 60 30 0,0
24.04.2017 20:00:00 23,3 1,6 23,2 17,2 14,4 10 5 22 12 NW 1010,8 60 44 0,0
24.04.2017 19:00:00 25,6 3,5 27,8 16,9 14,4 12 6 21 12 NW 1010,8 60 60 0,0
24.04.2017 18:00:00 26,6 3,8 30,2 16,5 14,3 11 6 29 15 WNW 1010,8 60 58 0,0
24.04.2017 17:00:00 26,3 2,9 31,8 16,2 14,3 10 5 27 14 WNW 1011,5 60 60 0,0
24.04.2017 16:00:00 26,1 3,3 33,0 15,8 14,3 6 4 26 14 ZW 1012,2 60 60 0,0
24.04.2017 15:00:00 25,5 2,8 32,5 15,5 14,3 6 3 18 10 ONO 1012,9 18 60 0,0
24.04.2017 14:00:00 24,4 4,7 31,1 15,3 14,3 4 2 18 10 N 1013,7 20 60 0,0
24.04.2017 13:00:00 22,7 4,2 29,7 15,1 14,3 5 3 11 6 W 1014,9 19 60 0,0
24.04.2017 12:00:00 20,9 5,7 27,6 15,2 14,3 3 1 9 5 ZZO 1015,3 60 60 0,0
24.04.2017 11:00:00 18,7 7,5 24,0 15,3 14,3 3 2 8 5 Z 1015,8 60 60 0,0
24.04.2017 10:00:00 14,4 6,5 17,5 15,4 14,3 3 2 8 4 OZO 1016,0 60 60 0,0
24.04.2017 09:00:00 10,3 5,3 7,1 15,6 14,3 0 0 5 3 N 1016,4 57 60 0,0
24.04.2017 08:00:00 4,6 2,9 -1,0 15,8 14,3 3 1 6 3 O 1016,4 49 32 0,0
24.04.2017 07:00:00 3,3 1,8 -1,2 16,1 14,3 4 2 5 3 ONO 1016,1 60 0 0,0
24.04.2017 06:00:00 3,3 1,3 -0,8 16,3 14,3 3 2 4 2 NO 1016,0 60 0 0,0
24.04.2017 05:00:00 5,2 2,4 -1,0 16,5 14,3 2 1 4 2 NNO 1016,2 60 0 0,0
24.04.2017 04:00:00 7,0 3,2 -0,4 16,7 14,3 4 2 7 4 W 1016,5 60 0 0,0
24.04.2017 03:00:00 8,5 3,3 0,2 16,9 14,3 4 2 5 3 W 1016,7 60 0 0,0
24.04.2017 02:00:00 9,8 3,3 1,1 17,0 14,3 0 0 5 3 N 1016,9 60 0 0,0
24.04.2017 01:00:00 10,7 3,5 1,9 17,1 14,2 0 0 9 5 N 1017,2 60 0 0,0
24.04.2017 00:00:00 11,4 3,2 2,9 17,2 14,3 7 4 9 5 NNO 1017,4 60 0 0,0
23.04.2017 23:00:00 13,5 3,3 4,5 17,3 14,3 4 2 10 6 NO 1017,4 60 0 0,0
23.04.2017 22:00:00 16,7 2,7 10,8 17,2 14,3 8 4 16 9 N 1016,9 60 0 0,0
23.04.2017 21:00:00 19,5 2,4 15,8 17,1 14,3 10 5 22 12 N 1016,4 60 29 0,0
23.04.2017 20:00:00 23,0 1,9 23,8 16,8 14,2 13 7 27 15 N 1016,0 60 60 0,0
23.04.2017 19:00:00 24,9 2,3 28,7 16,5 14,2 14 7 28 15 NNW 1015,7 60 60 0,0
23.04.2017 18:00:00 25,6 1,0 30,9 16,2 14,2 14 8 28 15 N 1015,8 60 60 0,0
23.04.2017 17:00:00 26,3 0,8 31,6 15,8 14,3 13 7 34 18 NNO 1016,0 60 60 0,0
23.04.2017 16:00:00 25,7 -1,2 34,7 15,4 14,2 8 4 21 11 ONO 1016,6 60 60 0,0
23.04.2017 15:00:00 25,7 1,0 32,1 15,1 14,3 12 6 23 12 N 1017,2 60 60 0,0
23.04.2017 14:00:00 24,6 2,7 30,8 14,8 14,2 6 3 22 12 ONO 1017,7 60 60 0,0
23.04.2017 13:00:00 22,8 4,8 29,9 14,7 14,2 4 2 18 10 NO 1018,7 60 60 0,0
23.04.2017 12:00:00 20,4 5,6 27,1 14,7 14,2 7 4 14 8 N 1019,2 60 60 0,0
23.04.2017 11:00:00 17,6 5,5 22,2 14,7 14,2 3 1 9 5 O 1019,6 60 60 0,0
23.04.2017 10:00:00 14,0 4,6 16,6 14,9 14,2 3 2 10 5 ONO 1019,9 60 60 0,0
23.04.2017 09:00:00 9,6 3,8 6,0 15,1 14,2 3 1 6 3 OZO 1020,1 60 60 0,0
23.04.2017 08:00:00 4,4 1,4 -1,2 15,3 14,2 3 1 5 3 O 1020,2 41 20 0,0
23.04.2017 07:00:00 3,7 0,7 -1,5 15,5 14,2 0 0 3 2 N 1019,7 60 0 0,0
23.04.2017 06:00:00 5,2 1,5 -1,4 15,7 14,2 0 0 5 3 N 1019,5 60 0 0,0
23.04.2017 05:00:00 5,8 0,9 -0,8 15,9 14,2 0 0 4 2 N 1019,4 60 0 0,0
23.04.2017 04:00:00 7,0 0,9 -0,3 16,1 14,2 0 0 4 2 N 1019,5 60 0 0,0
23.04.2017 03:00:00 8,6 1,3 0,4 16,3 14,2 2 1 6 3 OZO 1019,7 60 0 0,0
23.04.2017 02:00:00 8,6 1,3 1,0 16,4 14,2 2 1 7 4 O 1020,1 60 0 0,0
23.04.2017 01:00:00 9,2 1,1 2,3 16,5 14,2 2 1 10 5 NO 1020,1 60 0 0,0
23.04.2017 00:00:00 11,0 1,2 3,5 16,6 14,2 2 1 4 2 ONO 1020,0 60 0 0,0
22.04.2017 23:00:00 13,9 0,5 4,3 16,6 14,2 3 2 10 6 OZO 1019,8 60 0 0,0
22.04.2017 22:00:00 14,2 0,8 5,7 16,6 14,2 3 1 8 4 NO 1019,6 60 0 0,0
22.04.2017 21:00:00 19,1 -0,4 10,1 16,4 14,2 5 3 11 6 ONO 1019,1 60 28 0,0
22.04.2017 20:00:00 23,6 -3,7 24,6 16,2 14,2 7 4 17 9 ZO 1018,8 60 60 0,0
22.04.2017 19:00:00 24,6 -2,9 28,4 15,9 14,2 9 5 22 12 O 1019,0 60 60 0,0
22.04.2017 18:00:00 24,9 -4,5 29,3 15,5 14,2 13 7 23 12 ONO 1019,1 60 60 0,0
22.04.2017 17:00:00 25,0 -4,4 30,7 15,1 14,2 13 7 25 14 ONO 1019,5 60 60 0,0
22.04.2017 16:00:00 24,8 -1,2 31,3 14,8 14,3 13 7 27 14 O 1020,4 20 60 0,0
22.04.2017 15:00:00 24,4 -0,7 30,3 14,4 14,2 10 5 27 14 O 1021,3 60 60 0,0
22.04.2017 14:00:00 23,1 -1,8 29,1 14,2 14,2 12 7 24 13 OZO 1022,0 60 60 0,0
22.04.2017 13:00:00 21,7 -1,0 26,8 14,1 14,2 15 8 28 15 O 1022,9 60 60 0,0
22.04.2017 12:00:00 19,9 1,3 24,2 14,1 14,2 13 7 25 14 OZO 1023,7 60 60 0,0
22.04.2017 11:00:00 17,0 2,9 19,4 14,2 14,2 10 5 17 9 O 1024,2 60 60 0,0
22.04.2017 10:00:00 12,8 2,0 13,3 14,3 14,2 10 5 17 9 O 1024,5 60 60 0,0
22.04.2017 09:00:00 8,2 0,7 5,2 14,5 14,2 8 4 11 6 O 1024,8 60 60 0,0
22.04.2017 08:00:00 3,1 -0,4 -1,7 14,7 14,2 7 4 9 5 ONO 1024,6 59 28 0,0
22.04.2017 07:00:00 0,8 -2,3 -2,2 14,9 14,2 6 4 9 5 ONO 1024,4 60 0 0,0
22.04.2017 06:00:00 1,5 -2,6 -1,7 15,1 14,2 4 2 7 4 ONO 1024,3 60 0 0,0
22.04.2017 05:00:00 1,6 -2,5 -2,5 15,3 14,2 4 2 8 4 NO 1024,5 60 0 0,0
22.04.2017 04:00:00 2,9 -2,4 0,1 15,5 14,3 3 2 6 4 ONO 1024,5 60 0 0,0
22.04.2017 03:00:00 3,3 -2,0 0,2 15,7 14,2 4 2 6 3 O 1024,8 60 0 0,0
22.04.2017 02:00:00 5,0 -2,4 1,3 15,8 14,2 4 2 7 4 O 1025,2 60 0 0,0

tt = temperatuur
td = dauwpunt
tt 5cm = temperatuur 5cm
tt -20cm = temperatuur -20cm
tt -100cm = temperatuur -100cm
ff = windsnelheid
fx = windstoten
dd = windrichting
ppp = luchtdruk
vv = zicht
sd = Zonneschijnduur
rr = neerslag

Weerstations in de omgeving